Location: Newark
(45.5167°N, 11.1667°E)
Time: 12:51:41
(UTC+00:00)

Explorer 7 - Pass Details

Date: 19 December 2019
Orbit: 485 x 679 km, 50.3° (Epoch: 16 January)

Event Time Altitude Azimuth Distance (km) Brightness Sun altitude
Rises 13:53:11 0° 269° (W) 2,942 11.1 12.0°
Reaches altitude 10° 13:55:32 10° 274° (W) 2,058 10.3 11.7°
Maximum altitude 14:00:11 51° 351° (N) 841 7.7 11.2°
Drops below altitude 10° 14:04:59 10° 68° (ENE) 2,118 9.3 10.7°
Sets 14:07:26 0° 73° (ENE) 3,036 10.1 10.4°
